Current Conditions
Overcast
Conditions



Pressure
1026.92 (hPa) - 30.32 (inHG)
Visibility

6.2 (miles) - 10.0 (km)
Temperature
17  °C
Temperature
13  °C
Dewpoint
77  %
 Humidity
Wind Speed
14  mph
12  kts
23  km/h
6.3  m/s
Wind Direction
N
45°
E
90°
135°
S
180°
225°
W
270°
315°
 270°

Due West
Airport Data
EGCC
Manchester Airport
Metar :EGCC 061220Z AUTO 27012KT 9999 OVC018 17/13 Q1027 TEMPO BKN014
Wed 6th July 13:20 pm
Raw Metar Info
Raw METAR is the most common format in the world for the transmission of observational weather data. It is highly standardized through the International Civil Aviation Organization (ICAO), which allows it to be understood throughout most of the world.
API Info
Data Provided by
https://www.checkwx.com/weather/EGCC

Aviation Weather providing METAR, TAF, AIRMET, SIGMET and OUTLOOK Weather Reports
© Info
CSS/SVG/PHP scripts were developed by weather34.com for use in the weather34 template © 2015-2022

Guide Info provided by Metar-Wikipedia